Minneapolis, MN

6:47 PM CDT on April 26, 2017 (GMT -0500)
Minneapolis-Saint Paul International

Weather History for KMSP - January, 2014

Change the Weather History Date:

Tuesday, January 21, 2014

  Actual Average Record
Temperature  
Mean Temperature -3 °F 15 °F  
Max Temperature 6 °F 24 °F 48 °F (1900)
Min Temperature -13 °F 7 °F -41 °F (1888)
Degree Days  
Heating Degree Days 68 50  
Month to date heating degree days 1148 1043  
Since 1 July heating degree days 4271 4066  
Cooling Degree Days 0 0  
Month to date cooling degree days 0 0  
Year to date cooling degree days 0 0  
Moisture  
Dew Point -11 °F    
Average Humidity 72    
Maximum Humidity 87    
Minimum Humidity 56    
Precipitation  
Precipitation 0.01 in 0.03 in 0.81 in (1917)
Month to date precipitation 0.68 0.63  
Year to date precipitation 0.68 0.63  
Snow  
Snow 0.50 in 0.40 in 15.80 in (1917)
Month to date snowfall 11.0 8.4  
Since 1 July snowfall 28.0 30.2  
Snow Depth 10.00 in    
Sea Level Pressure  
Sea Level Pressure 30.32 in    
Wind  
Wind Speed 6 mph (SSW)    
Max Wind Speed 17 mph    
Max Gust Speed 22 mph    
Visibility 8 miles    
Events Snow    
T = Trace of Precipitation, MM = Missing Value Source: NWS Daily Summary

Daily Weather History Graph

Daily Weather History Graph

Search for Another Location

Airport or City:

Trip Planner

Search our weather history database for the weather conditions in past years. The results will help you decide how hot, cold, wet, or windy it might be!

Date:

Astronomy

Jan. 21, 2014 Rise Set
Actual Time 7:43 AM CST 5:05 PM CST
Civil Twilight 7:10 AM CST 5:38 PM CST
Nautical Twilight 6:35 AM CST 6:13 PM CST
Astronomical Twilight 6:00 AM CST 6:48 PM CST
Moon 10:55 PM CST (1/21) 9:57 AM CST (1/21)
Length of Visible Light 10h 27m
Length of Day
9h 22m
Waning Gibbous, 74% of the Moon is Illuminated
Jan 21
Waning Gibbous
Jan 23
Last Quarter
Jan 30
New
Feb 6
First Quarter
Feb 14
Full

Hourly Weather History & Observations

Time (CST) Temp. Windchill Dew Point Humidity Pressure Visibility Wind Dir Wind Speed Gust Speed Precip Events Conditions
12:53 AM -5.1 °F -22.5 °F -16.1 °F 59% 30.52 in 10.0 mi NNW 10.4 mph - N/A   Clear
1:53 AM -6.0 °F -21.5 °F -17.0 °F 59% 30.52 in 10.0 mi NNW 8.1 mph - N/A   Clear
2:53 AM -8.0 °F -21.0 °F -18.0 °F 61% 30.55 in 10.0 mi WNW 5.8 mph - N/A   Clear
3:53 AM -9.9 °F -24.9 °F -18.9 °F 65% 30.54 in 10.0 mi NW 6.9 mph - N/A   Clear
4:53 AM -9.9 °F -26.3 °F -18.9 °F 65% 30.52 in 10.0 mi NW 8.1 mph - N/A   Clear
5:53 AM -11.9 °F -23.8 °F -20.0 °F 67% 30.51 in 10.0 mi NW 4.6 mph - N/A   Clear
6:53 AM -11.9 °F -23.8 °F -18.9 °F 71% 30.50 in 10.0 mi WNW 4.6 mph - N/A   Clear
7:53 AM -13.0 °F -28.6 °F -18.9 °F 75% 30.50 in 10.0 mi WNW 6.9 mph - N/A   Partly Cloudy
8:53 AM -11.0 °F - -17.0 °F 75% 30.47 in 10.0 mi Calm Calm - N/A   Mostly Cloudy
9:53 AM -9.9 °F -23.4 °F -17.0 °F 71% 30.48 in 10.0 mi SW 5.8 mph - N/A   Mostly Cloudy
10:53 AM -9.0 °F -23.8 °F -17.0 °F 68% 30.46 in 10.0 mi SSW 6.9 mph - N/A   Mostly Cloudy
11:53 AM -7.1 °F -15.9 °F -16.1 °F 65% 30.42 in 10.0 mi SSW 3.5 mph - N/A   Mostly Cloudy
12:32 PM -5.8 °F -14.5 °F -14.8 °F 65% 30.29 in 10.0 mi South 3.5 mph - N/A   Overcast
12:53 PM -4.0 °F -14.6 °F -14.1 °F 62% 30.36 in 10.0 mi Variable 4.6 mph - N/A   Overcast
1:53 PM -2.0 °F -12.2 °F -13.0 °F 60% 30.31 in 10.0 mi South 4.6 mph - N/A   Overcast
2:53 PM -0.9 °F -14.1 °F -11.0 °F 62% 30.28 in 10.0 mi South 6.9 mph - N/A   Overcast
3:53 PM -0.9 °F -16.4 °F -9.9 °F 66% 30.26 in 9.0 mi SE 9.2 mph - 0.00 in   Overcast
4:53 PM -0.9 °F -15.3 °F -9.0 °F 69% 30.24 in 8.0 mi SE 8.1 mph - 0.00 in Snow Light Snow
5:53 PM -0.9 °F -11.0 °F -7.1 °F 75% 30.24 in 7.0 mi SE 4.6 mph - 0.00 in Snow Light Snow
6:53 PM -0.0 °F -14.2 °F -5.1 °F 79% 30.21 in 4.0 mi SE 8.1 mph - 0.00 in Snow Light Snow
7:53 PM 1.0 °F -11.7 °F -4.0 °F 79% 30.17 in 6.0 mi SE 6.9 mph - 0.00 in Snow Light Snow
8:53 PM 1.9 °F -12.9 °F -2.9 °F 80% 30.13 in 7.0 mi SSE 9.2 mph - 0.00 in Snow Light Snow
9:53 PM 3.0 °F -6.4 °F -0.9 °F 84% 30.10 in 5.0 mi SSE 4.6 mph - 0.00 in Snow Light Snow
10:07 PM 3.2 °F -6.2 °F -0.4 °F 85% 30.02 in 2.5 mi SSE 4.6 mph - 0.00 in Snow Light Snow
10:21 PM 3.2 °F -6.2 °F -0.4 °F 85% 30.01 in 3.0 mi SSE 4.6 mph - 0.00 in Snow Light Snow
10:53 PM 5.0 °F -5.6 °F 1.0 °F 84% 30.07 in 3.0 mi South 5.8 mph - 0.01 in Snow Light Snow
11:53 PM 6.1 °F -2.8 °F 3.0 °F 87% 30.06 in 1.8 mi SSW 4.6 mph - 0.00 in Snow Light Snow